DW0479 Weather Reports


time (UTC)temp
C
wind
direction
speed
KPH
gust
KPH
rain 1hr
cm
rain 24hr
cm
rain mn
cm
humidity
%
barometer
mb
20260507203231 35 217 4.8 17.7 0.00 0.00 0.00 37 1012.9
20260507202224 35 256 8.0 25.7 0.00 0.00 0.00 38 1013.2
20260507201223 35 294 9.7 17.7 0.00 0.00 0.00 39 1013.1
20260507200224 35 209 8.0 17.7 0.00 0.00 0.00 39 1013.2
20260507195226 35 225 8.0 17.7 0.00 0.00 0.00 41 1013.4
20260507194218 35 220 11.3 27.4 0.00 0.00 0.00 41 1013.6
20260507193218 35 266 6.4 17.7 0.00 0.00 0.00 43 1013.7
20260507192217 35 233 11.3 22.5 0.00 0.00 0.00 39 1013.7
20260507191215 35 229 9.7 19.3 0.00 0.00 0.00 42 1013.8
20260507191135 34 216 9.7 20.9 0.00 0.00 0.00 42 1014.0
20260507185217 33 198 9.7 22.5 0.00 0.00 0.00 45 1014.1
20260507184213 34 228 9.7 19.3 0.00 0.00 0.00 44 1014.3
20260507183214 33 219 9.7 22.5 0.00 0.00 0.00 48 1014.4
20260507182213 34 260 11.3 24.1 0.00 0.00 0.00 47 1014.7
20260507181702 34 218 9.7 22.5 0.00 0.00 0.00 50 1014.7
20260507180212 33 285 9.7 22.5 0.00 0.00 0.00 50 1014.9
20260507175211 34 236 9.7 24.1 0.00 0.00 0.00 50 1015.1
20260507174209 33 287 11.3 25.7 0.00 0.00 0.00 51 1015.2
20260507173209 33 262 9.7 22.5 0.00 0.00 0.00 54 1015.3
20260507172210 33 277 11.3 20.9 0.00 0.00 0.00 53 1015.3
20260507171209 32 209 11.3 24.1 0.00 0.00 0.00 53 1015.4
20260507170211 32 200 9.7 19.3 0.00 0.00 0.00 52 1015.3
20260507165642 32 238 9.7 20.9 0.00 0.00 0.00 52 1015.4
20260507164647 33 188 8.0 19.3 0.00 0.00 0.00 50 1015.6
20260507163207 32 217 8.0 22.5 0.00 0.00 0.00 52 1015.6
20260507162658 32 282 8.0 22.5 0.00 0.00 0.00 54 1015.7
20260507161207 32 316 9.7 29.0 0.00 0.00 0.00 51 1015.9
20260507160210 31 252 8.0 16.1 0.00 0.00 0.00 53 1015.9
20260507155650 31 237 9.7 17.7 0.00 0.00 0.00 50 1016.1
20260507154208 31 179 8.0 19.3 0.00 0.00 0.00 50 1016.2
20260507153159 31 249 8.0 19.3 0.00 0.00 0.00 52 1016.2
20260507152652 31 232 8.0 16.1 0.00 0.00 0.00 51 1016.3
20260507151643 30 224 8.0 19.3 0.00 0.00 0.00 53 1016.3
20260507150158 30 230 8.0 17.7 0.00 0.00 0.00 52 1016.5
20260507145146 30 179 8.0 19.3 0.00 0.00 0.00 52 1016.4
20260507144146 30 243 9.7 20.9 0.00 0.00 0.00 55 1016.4
20260507143147 29 240 9.7 24.1 0.00 0.00 0.00 54 1016.4
20260507142145 29 210 9.7 20.9 0.00 0.00 0.00 55 1016.4
20260507141146 28 201 9.7 19.3 0.00 0.00 0.00 57 1016.4
20260507140145 28 187 8.0 16.1 0.00 0.00 0.00 59 1016.4
20260507135626 28 204 6.4 17.7 0.00 0.00 0.00 63 1016.4
20260507134629 27 190 8.0 17.7 0.00 0.00 0.00 66 1016.4
20260507133142 27 202 6.4 20.9 0.00 0.00 0.00 70 1016.4
20260507132618 27 197 6.4 17.7 0.00 0.00 0.00 72 1016.2
20260507131142 26 171 6.4 14.5 0.00 0.00 0.00 74 1016.2
20260507130619 26 183 6.4 12.9 0.00 0.00 0.00 75 1016.2
20260507125626 25 208 4.8 12.9 0.00 0.00 0.00 77 1016.2
20260507124143 24 181 4.8 11.3 0.00 0.00 0.00 79 1016.1
20260507123135 23 202 6.4 11.3 0.00 0.00 0.00 82 1016.1
20260507122132 23 195 6.4 14.5 0.00 0.00 0.00 84 1016.1
20260507121132 23 204 3.2 11.3 0.00 0.00 0.00 86 1016.2
20260507120133 22 193 4.8 11.3 0.00 0.00 0.00 89 1016.1
20260507115133 21 176 3.2 9.7 0.00 0.00 0.00 92 1015.9
20260507114619 20 183 1.6 8.0 0.00 0.00 0.00 92 1015.9
20260507113135 19 188 0.0 0.0 0.00 0.00 0.00 92 1015.9
20260507112624 18 188 0.0 1.6 0.00 0.00 0.00 92 1015.9
20260507111135 18 167 0.0 0.0 0.00 0.00 0.00 92 1015.7
20260507110130 18 165 0.0 0.0 0.00 0.00 0.00 92 1015.7
20260507105131 18 174 0.0 1.6 0.00 0.00 0.00 92 1015.7
20260507104130 18 177 0.0 1.6 0.00 0.00 0.00 92 1015.6
20260507103131 18 177 0.0 0.0 0.00 0.00 0.00 91 1015.7
20260507102117 19 177 0.0 0.0 0.00 0.00 0.00 90 1015.6
20260507102037 19 177 0.0 1.6 0.00 0.00 0.00 90 1015.5
20260507100600 19 177 0.0 0.0 0.00 0.00 0.00 90 1015.3
20260507095115 19 177 0.0 1.6 0.00 0.00 0.00 90 1015.1
20260507094118 19 177 0.0 1.6 0.00 0.00 0.00 90 1014.9
20260507093119 19 177 0.0 1.6 0.00 0.00 0.00 90 1014.8
20260507092117 19 177 0.0 0.0 0.00 0.00 0.00 89 1014.9
20260507091114 20 177 0.0 0.0 0.00 0.00 0.00 88 1015.0
20260507090113 20 177 0.0 0.0 0.00 0.00 0.00 89 1015.1
20260507085113 20 177 0.0 0.0 0.00 0.00 0.00 89 1015.0
20260507084113 20 177 0.0 1.6 0.00 0.00 0.00 89 1014.9
20260507083113 20 177 0.0 1.6 0.00 0.00 0.00 90 1014.8
20260507082113 20 177 0.0 0.0 0.00 0.00 0.00 88 1014.6
20260507081112 20 177 0.0 4.8 0.00 0.00 0.00 87 1014.7
20260507080602 21 177 0.0 4.8 0.00 0.00 0.00 85 1014.7
20260507075113 21 177 1.6 4.8 0.00 0.00 0.00 85 1014.7
20260507074113 21 177 0.0 4.8 0.00 0.00 0.00 84 1014.7
20260507073110 21 177 0.0 0.0 0.00 0.00 0.00 83 1014.9
20260507072110 22 177 0.0 1.6 0.00 0.00 0.00 81 1014.9
20260507071109 22 177 1.6 4.8 0.00 0.00 0.00 79 1014.9
20260507070110 22 177 3.2 8.0 0.00 0.00 0.00 78 1015.0
20260507065547 23 177 3.2 9.7 0.00 0.00 0.00 77 1015.0
20260507064108 23 170 4.8 8.0 0.00 0.00 0.00 76 1015.2
20260507063109 23 181 3.2 9.7 0.00 0.00 0.00 76 1015.3
20260507062548 23 183 4.8 9.7 0.00 0.00 0.00 75 1015.4
20260507061103 23 174 4.8 9.7 0.00 0.00 0.00 74 1015.5
20260507060105 23 192 4.8 16.1 0.00 0.00 0.00 74 1015.6
20260507055538 23 150 6.4 11.3 0.00 0.00 0.00 74 1015.6
20260507054101 23 189 6.4 12.9 0.00 0.00 0.00 73 1015.6
20260507053101 23 177 6.4 11.3 0.00 0.00 0.00 73 1015.7
20260507052102 23 165 6.4 11.3 0.00 0.00 0.00 73 1015.9
20260507051548 23 176 3.2 9.7 0.00 0.00 0.00 74 1016.0
20260507045105 23 167 3.2 9.7 0.00 0.00 0.00 73 1016.2
20260507044050 23 177 3.2 8.0 0.00 0.00 0.00 72 1016.4
20260507043048 23 150 3.2 11.3 0.00 0.00 0.00 71 1016.4
20260507042048 24 147 3.2 11.3 0.00 0.00 0.00 70 1016.3
20260507041048 24 151 4.8 11.3 0.00 0.00 0.00 70 1016.2
20260507040047 24 154 4.8 11.3 0.00 0.00 0.00 69 1016.2
20260507035524 24 156 3.2 8.0 0.00 0.00 0.00 69 1016.3
20260507034037 25 156 4.8 9.7 0.00 0.00 0.00 68 1016.3
20260507033521 25 154 4.8 11.3 0.00 0.00 0.00 67 1016.3
20260507032036 25 147 4.8 14.5 0.00 0.00 0.00 66 1016.2
20260507031037 25 160 4.8 11.3 0.00 0.00 0.00 66 1016.1
20260507030035 25 147 4.8 11.3 0.00 0.00 0.00 66 1016.1
20260507025037 25 146 6.4 11.3 0.00 0.00 0.00 65 1016.0
20260507024037 26 148 4.8 14.5 0.00 0.00 0.00 64 1016.2
20260507023037 26 171 6.4 14.5 0.00 0.00 0.00 63 1016.2
20260507022035 26 170 8.0 20.9 0.00 0.00 0.00 63 1016.2
20260507021036 26 181 4.8 14.5 0.00 0.00 0.00 64 1016.1
20260507020039 26 176 6.4 14.5 0.00 0.00 0.00 63 1016.0
20260507015023 26 173 4.8 11.3 0.00 0.00 0.00 62 1016.0
20260507014502 26 154 4.8 14.5 0.00 0.00 0.00 59 1015.7
20260507013022 27 156 4.8 14.5 0.00 0.00 0.00 58 1015.6
20260507012024 27 129 6.4 16.1 0.00 0.00 0.00 57 1015.5
20260507011502 27 108 8.0 16.1 0.00 0.00 0.00 57 1015.4
20260507010014 28 129 6.4 14.5 0.00 0.00 0.00 56 1015.3
20260507005448 28 115 8.0 20.9 0.00 0.00 0.00 55 1015.2
20260507004011 28 119 4.8 14.5 0.00 0.00 0.00 55 1015.2
20260507003013 28 94 8.0 16.1 0.00 0.00 0.00 54 1015.0
20260507002012 29 109 6.4 16.1 0.00 0.00 0.00 53 1015.0
20260507001002 30 117 8.0 17.7 0.00 0.00 0.00 52 1014.9
20260507000002 30 109 6.4 20.9 0.00 0.00 0.00 52 1014.9
20260506235002 30 105 6.4 17.7 0.00 0.00 0.00 51 1014.7
20260506234002 31 94 6.4 19.3 0.00 0.00 0.00 47 1014.6
20260506233004 32 132 4.8 9.7 0.00 0.00 0.00 42 1014.5
20260506231948 32 103 4.8 12.9 0.00 0.00 0.00 41 1014.5
20260506230948 32 97 6.4 16.1 0.00 0.00 0.00 40 1014.6
20260506225948 33 92 6.4 16.1 0.00 0.00 0.00 40 1014.6
20260506224948 33 71 4.8 12.9 0.00 0.00 0.00 40 1014.6
20260506223949 33 100 6.4 16.1 0.00 0.00 0.00 41 1014.6
20260506222934 33 120 6.4 16.1 0.00 0.00 0.00 40 1014.6
20260506221935 33 98 4.8 14.5 0.00 0.00 0.00 41 1014.6
20260506220936 33 120 6.4 16.1 0.00 0.00 0.00 41 1014.6
20260506220906 34 111 4.8 12.9 0.00 0.00 0.00 40 1014.7
20260506214936 34 58 6.4 14.5 0.00 0.00 0.00 42 1014.7
20260506213936 34 124 6.4 12.9 0.00 0.00 0.00 40 1014.6
20260506212926 34 63 3.2 11.3 0.00 0.00 0.00 43 1014.7
20260506212849 34 171 4.8 16.1 0.00 0.00 0.00 40 1014.6
20260506210926 34 85 8.0 17.7 0.00 0.00 0.00 41 1014.6
20260506205923 34 113 6.4 16.1 0.00 0.00 0.00 40 1014.6
20260506204926 35 138 4.8 12.9 0.00 0.00 0.00 40 1014.6
20260506203916 34 135 4.8 12.9 0.00 0.00 0.00 38 1014.7